Tracking 32139 objects as of 15-Nov-2025
HD Live streaming from Space Station
objects crossing your sky now

SPAINSAT NG II

Track SPAINSAT NG II now!


NORAD ID: 66144
Int'l Code: 2025-239A
Perigee: 1,784.7 km
Apogee: 66,296.9 km
Inclination: 21.7 °
Period: 1,347.5 minutes
Semi major axis: 40411 km
RCS: Unknown
Launch date: October 24, 2025
Source: Spain (SPN)
Launch site: AIR FORCE EASTERN TEST RANGE (AFETR)
Your satellite tracking list
Your tracking list is empty




NASA's NSSDC Master Catalog

Two Line Element Set (TLE):
1 66144U 25239A   25316.17219603 -.00000350  00000-0  00000+0 0  9996
2 66144  21.7009 244.3575 7981845 182.7880 165.3587  1.06866209   236
Source of the keplerian elements: AFSPC